EW3360 Weather Reports


time (UTC)temp
C
wind
direction
speed
KPH
gust
KPH
rain 1hr
cm
rain 24hr
cm
rain mn
cm
humidity
%
barometer
mb
20260505124514 7 263 0.0 0.0 0.00 0.00 0.00 96 1016.4
20260505123013 7 263 0.0 3.2 0.00 0.00 0.00 97 1016.5
20260505121512 6 263 0.0 0.0 0.00 0.00 0.00 97 1016.3
20260505120012 5 54 0.0 0.0 0.00 0.00 0.00 97 1016.3
20260505114510 5 54 0.0 0.0 0.00 0.00 0.00 97 1016.3
20260505113012 5 54 0.0 0.0 0.00 0.00 0.00 97 1016.2
20260505111509 5 54 0.0 0.0 0.00 0.00 0.00 97 1016.3
20260505101505 5 54 0.0 0.0 0.00 0.00 0.00 96 1016.0
20260505100007 5 54 0.0 0.0 0.00 0.00 0.00 96 1016.1
20260505094503 5 54 0.0 0.0 0.00 0.00 0.00 96 1015.9
20260505093008 5 54 0.0 0.0 0.00 0.00 0.00 96 1015.8
20260505091502 5 54 0.0 0.0 0.00 0.00 0.00 96 1015.8
20260505090006 5 54 0.0 0.0 0.00 0.00 0.00 96 1015.9
20260505084605 5 54 0.0 0.0 0.00 0.00 0.00 96 1015.8
20260505083112 5 54 0.0 0.0 0.00 0.00 0.00 96 1015.8
20260505081601 5 54 0.0 0.0 0.00 0.00 0.00 95 1015.6
20260505080104 6 54 0.0 0.0 0.00 0.00 0.00 95 1015.7
20260505074553 6 54 0.0 0.0 0.00 0.00 0.00 95 1015.8
20260505073059 6 54 0.0 0.0 0.00 0.00 0.00 95 1015.8
20260505071553 6 54 0.0 0.0 0.00 0.00 0.00 95 1016.0
20260505070052 6 54 0.0 1.6 0.00 0.00 0.00 95 1016.0
20260505064615 6 54 0.0 0.0 0.00 0.00 0.00 94 1016.2
20260505063045 6 54 0.0 1.6 0.00 0.00 0.00 94 1016.4
20260505061544 6 54 0.0 0.0 0.00 0.00 0.00 94 1016.5
20260505060041 7 54 0.0 1.6 0.00 0.00 0.00 94 1016.4
20260505054548 7 54 0.0 0.0 0.00 0.00 0.00 93 1016.4
20260505053038 7 54 0.0 0.0 0.00 0.00 0.00 93 1016.3
20260505051538 7 54 0.0 0.0 0.00 0.00 0.00 93 1016.4
20260505041528 8 54 0.0 1.6 0.00 0.00 0.00 90 1016.4
20260505040026 8 54 0.0 0.0 0.00 0.00 0.00 90 1016.6
20260505034527 8 54 0.0 0.0 0.00 0.00 0.00 89 1016.7
20260505033027 8 54 0.0 0.0 0.00 0.00 0.00 88 1016.8
20260505031525 9 54 0.0 0.0 0.00 0.00 0.00 88 1016.8
20260505030040 10 54 0.0 0.0 0.00 0.00 0.00 87 1016.9
20260505024524 10 54 0.0 1.6 0.00 0.00 0.00 86 1016.7
20260505023025 10 54 0.0 1.6 0.00 0.00 0.00 85 1016.7
20260505021524 10 54 0.0 0.0 0.00 0.00 0.00 84 1016.7
20260505020022 11 54 0.0 1.6 0.00 0.00 0.00 83 1016.6
20260505014523 11 54 0.0 1.6 0.00 0.00 0.00 81 1016.5
20260505013020 12 54 0.0 1.6 0.00 0.00 0.00 79 1016.3
20260505011520 12 54 0.0 0.0 0.00 0.00 0.00 78 1016.1
20260505010019 13 54 0.0 0.0 0.00 0.00 0.00 76 1016.0
20260505004530 13 54 0.0 0.0 0.00 0.00 0.00 73 1015.9
20260505003018 14 54 0.0 1.6 0.00 0.00 0.00 72 1015.8
20260505001518 15 54 0.0 0.0 0.00 0.00 0.00 71 1015.8
20260505000018 16 54 0.0 0.0 0.00 0.00 0.00 68 1015.7
20260504234519 16 54 0.0 3.2 0.00 0.00 0.00 68 1015.5
20260504233020 17 54 0.0 4.8 0.00 0.00 0.00 67 1015.4
20260504231516 18 54 0.0 3.2 0.00 0.00 0.00 64 1015.3
20260504230015 18 54 0.0 4.8 0.00 0.00 0.00 61 1015.2
20260504224514 18 9 0.0 8.0 0.00 0.00 0.00 56 1015.2
20260504223015 19 26 1.6 4.8 0.00 0.00 0.00 54 1015.2
20260504221513 20 155 0.0 6.4 0.00 0.00 0.00 50 1015.2
20260504220012 20 333 1.6 9.7 0.00 0.00 0.00 53 1015.3
20260504214513 20 19 1.6 6.4 0.00 0.00 0.00 50 1015.2
20260504213024 20 15 1.6 4.8 0.00 0.00 0.00 47 1015.1
20260504211510 20 42 1.6 9.7 0.00 0.00 0.00 48 1015.0
20260504210006 21 343 4.8 9.7 0.00 0.00 0.00 45 1015.1
20260504204508 21 5 1.6 8.0 0.00 0.00 0.00 46 1015.0
20260504203005 21 13 1.6 6.4 0.00 0.00 0.00 46 1015.0
20260504201503 21 24 3.2 6.4 0.00 0.00 0.00 44 1015.0
20260504200104 22 42 3.2 8.0 0.00 0.00 0.00 39 1015.2
20260504200006 23 42 3.2 8.0 0.00 0.00 0.00 40 1015.3
20260504194605 22 40 1.6 9.7 0.00 0.00 0.00 42 1015.4
20260504193058 22 74 3.2 6.4 0.00 0.00 0.00 44 1015.6
20260504191621 24 38 3.2 6.4 0.00 0.00 0.00 40 1015.8
20260504190058 23 34 1.6 6.4 0.00 0.00 0.00 37 1016.0
20260504184602 23 45 3.2 6.4 0.00 0.00 0.00 38 1016.2
20260504183053 23 40 3.2 12.9 0.00 0.00 0.00 37 1016.2
20260504181552 23 349 1.6 8.0 0.00 0.00 0.00 35 1016.2
20260504180050 24 53 1.6 8.0 0.00 0.00 0.00 32 1016.4
20260504174547 24 71 1.6 4.8 0.00 0.00 0.00 30 1016.6
20260504173044 23 159 1.6 6.4 0.00 0.00 0.00 31 1016.8
20260504171543 23 63 1.6 6.4 0.00 0.00 0.00 28 1017.2
20260504140105 11 102 0.0 3.2 0.00 0.03 0.00 74 1019.4